Home   Weather   Macau   Past weeks

Flag for Macau Past Weather in Macau, Macau — Yesterday and Last 2 Weeks

Now
66 °F

Passing clouds.


Feels Like: 66 °F
Forecast: 64 / 71 °F
Wind: 7 mph from North

Location: Taipa

Current Time: Feb 20, 2017 at 4:59:29 am

Latest Report: Feb 20, 2017 at 4:30 am


Visibility: 4 mi

Pressure: 29.92 "Hg

Humidity: 88%

Dew Point: 63 °F

Location of MacauLocation

Past Weather in Macau — Graph

°F

Macau Temperature Yesterday

Maximum temperature yesterday: 66 °F (at 12:00 am)
Minimum temperature yesterday: 63 °F (at 6:30 am)
Average temperature yesterday: 65 °F

High & Low Weather Summary for the Past Weeks

 TemperatureHumidityPressure
High72 °F (Feb 5, 2:00 pm)94% (Feb 5, 5:00 am)30.42 "Hg (Feb 5, 5:00 am)
Low50 °F (Feb 12, 5:30 am)43% (Feb 12, 3:30 pm)29.86 "Hg (Feb 5, 3:30 pm)
Average62 °F73%30.15 "Hg
* Reported Feb 5 4:00 am — Feb 20 4:00 am, Macau, Weather by CustomWeather, © 2017

Note: Actual official high and low records may vary slightly from our data, if they occured in-between our weather recording intervals... More about our weather records

Advertising

Macau Weather History for the Previous 24 Hours

Scroll right to see more
 ConditionsComfort  
Time TempWeatherWind HumidityBarometerVisibility
4:00 am
Mon, Feb 20
66 °FLight rain. Passing clouds.7 mph88%29.92 "Hg4 mi
3:30 am66 °FPassing clouds.6 mph88%29.92 "Hg4 mi
3:00 am64 °FPassing clouds.7 mph94%29.92 "Hg4 mi
2:30 am64 °FPassing clouds.5 mph94%29.92 "Hg4 mi
2:00 am64 °FPassing clouds.3 mph88%29.92 "Hg4 mi
1:30 am64 °FPassing clouds.3 mph88%29.92 "Hg4 mi
1:00 am64 °FPassing clouds.3 mph88%29.92 "Hg4 mi
12:30 am64 °FPassing clouds.5 mph88%29.92 "Hg4 mi
12:00 am64 °FPassing clouds.6 mph88%29.92 "Hg4 mi
11:30 pm
Sun, Feb 19
64 °FPassing clouds.5 mph88%29.95 "Hg5 mi
11:00 pm64 °FPassing clouds.3 mph88%29.95 "Hg4 mi
10:30 pm64 °FPassing clouds.3 mph88%29.95 "Hg4 mi
10:00 pm64 °FPassing clouds.5 mph88%29.95 "Hg5 mi
9:30 pm64 °FPassing clouds.2 mph88%29.95 "Hg5 mi
9:00 pm64 °FPassing clouds.1 mph88%29.98 "Hg5 mi
8:30 pm64 °FPassing clouds.1 mph88%29.98 "Hg5 mi
8:00 pm64 °FPassing clouds.2 mph83%29.98 "Hg5 mi
7:30 pm64 °FPassing clouds.3 mph88%29.95 "Hg5 mi
7:00 pm64 °FPassing clouds.1 mph88%29.95 "Hg5 mi
6:30 pm64 °FPassing clouds.2 mph88%29.95 "Hg4 mi
6:00 pm64 °FScattered clouds.3 mph83%29.95 "Hg4 mi
5:30 pm64 °FScattered clouds.5 mph83%29.95 "Hg4 mi
5:00 pm64 °FScattered clouds.5 mph83%29.95 "Hg5 mi
4:30 pm64 °FScattered clouds.3 mph83%29.95 "Hg4 mi
4:00 pm64 °FScattered clouds.5 mph83%29.95 "Hg4 mi
3:30 pm66 °FScattered clouds.6 mph73%29.98 "Hg5 mi
3:00 pm66 °FScattered clouds.8 mph73%29.98 "Hg5 mi
2:30 pm64 °FScattered clouds.9 mph78%30.01 "Hg5 mi
2:00 pm64 °FScattered clouds.8 mph78%30.01 "Hg5 mi
1:30 pm64 °FScattered clouds.8 mph83%30.04 "Hg5 mi
1:00 pm66 °FScattered clouds.8 mph78%30.04 "Hg5 mi
12:30 pm66 °FScattered clouds.7 mph78%30.07 "Hg6 mi
12:00 pm66 °FScattered clouds.7 mph78%30.09 "Hg6 mi
11:30 am66 °FScattered clouds.8 mph73%30.09 "Hg6 mi
11:00 am64 °FScattered clouds.8 mph83%30.12 "Hg6 mi
10:30 am64 °FScattered clouds.10 mph78%30.12 "Hg6 mi
10:00 am64 °FScattered clouds.9 mph78%30.12 "HgN/A
9:30 am64 °FScattered clouds.10 mph78%30.12 "HgN/A
9:00 am64 °FPassing clouds.13 mph73%30.12 "HgN/A
8:30 am64 °FPassing clouds.13 mph78%30.12 "HgN/A
8:00 am63 °FPassing clouds.12 mph83%30.12 "HgN/A
7:30 am63 °FPassing clouds.12 mph83%30.12 "HgN/A
7:00 am63 °FPassing clouds.14 mph83%30.09 "HgN/A
6:30 am63 °FClear.12 mph88%30.09 "Hg5 mi
6:00 am64 °FClear.12 mph83%30.09 "Hg6 mi
5:30 am64 °FClear.10 mph83%30.09 "Hg5 mi
5:00 am64 °FPassing clouds.10 mph83%30.09 "Hg5 mi
4:30 am64 °FPassing clouds.14 mph83%30.12 "Hg5 mi
4:00 am64 °FPassing clouds.12 mph88%30.12 "Hg5 mi
Weather by CustomWeather, © 2017

See weather overviewHow to use our weather pages